DELTA 1 DEB, 2888

Orbit data source: Space-Track

DELTA 1 DEB, 2888 is space debris in LEO originally from a launch on Sat, 06 Nov 1965 UTC launched from the Air Force Eastern Test Range (AFETR). Debris objects in space refer to the collection of defunct objects orbiting the Earth. Examples of debris include non-operational satellites, rocket bodies, and fragments generated from explosions, collisions, or faulty payload assembly.

Loading next visibility...
Identifier
2888, 1965-089D
Orbit
LEO
Last TLE update
2 days ago
Origin
Manufacturer
Unknown
Mission
Spacecraft
Bus & Motor
Unknown
Mass
Unknown
Launch date (UTC)
1965-11-06 (60 years ago)
Launch vehicle
Unknown
Launch site
Air Force Eastern Test Range (AFETR)
Object type
Payload
Rocket body
Debris
Shape & HBR
Unknown
Radar Cross Section
Small (<0.1 m²)

Expand to show TLE details & history

TLE from 2 days ago
0 DELTA 1 DEB
1 02888U 65089D   25127.59673909 -.00000057  00000-0  11127-3 0  9997
2 02888  59.1963 172.6065 0718342 342.9231  91.6955 11.87420298526322
Epoch: 2025-05-07T14:19Z
Definitive object data (Epoch: 2025-05-07T14:19:18.257Z)
Latitude
58.56533°
Longitude
168.22486°
Altitude
1,804.992 km
Speed
6.961 km/s
True Right ascension
16h 34m 55s
True Declination
58° 25' 54"
Sunlit
Object was in daylight at TLE epoch
Visualization TLE readout
Latitude
-15.82172°
Longitude
78.73795°
Altitude
1,159.802 km
Speed
7.53 km/s
Apparent Right ascension
07h 49m 11s
Apparent Declination
-45° 06' 05"
Sunlit
Object is in daylight
Visualization observer readout
Local Sidereal Time
14:21:57
Azimuth
235.578° WSW
Elevation
-32.118°
Doppler factor
1
Orbital elements
Apogee altitude
2,320.053 km
Perigee altitude
1,154.149 km
Semi-major axis
8,115.238 km
Eccentricity
0.0718342
Inclination
59.1963°
RAAN
172.6065°
Arg. of periapsis
342.9231°
True anomaly
99.87384°
Mean anomaly
91.6955°
Eccentric anomaly
95.7903°
Mean motion
2.96887 °/min
BSTAR
0.00011127
Orbital period
121.26 mins
Loading maneuver chart data...
Loading SW <> Apogee altitude chart data...
Loading historical data...
Loading historical data...
Loading historical data...
Loading historical data...
Loading historical data...
Loading historical data...
Loading historical data...

DELTA 1 DEB Visibility forecast

Observer location: undefined°, undefined°

Span
Click to sort rows by Start time (UTC) header in descending order
Start Az.
Max El. time (UTC)
Max El. Az.
Max El.
End time (UTC)
End Az.
17 mins2025-05-09 06:30:09.325Z261.479° W2025-05-09 06:37:09.325Z325.45° NNW33.927°2025-05-09 06:47:09.325Z37.704° NE
15 mins2025-05-09 08:41:09.325Z314.223° NW2025-05-09 08:47:09.325Z359.058° N24.366°2025-05-09 08:56:09.325Z51.956° ENE
20 mins2025-05-09 10:49:09.325Z327.522° NNW2025-05-09 10:57:09.325Z24.541° NE32.753°2025-05-09 11:09:09.325Z94.832° ESE
24 mins2025-05-09 12:55:09.325Z319.103° NNW2025-05-09 13:06:09.325Z163.804° S44.959°2025-05-09 13:19:09.325Z144.063° SSE
19 mins2025-05-09 15:03:09.325Z297.59° NW2025-05-09 15:12:09.325Z246.704° WSW25.844°2025-05-09 15:22:09.325Z197.598° SSW
7 mins2025-05-10 02:39:09.325Z130.285° SE2025-05-10 02:42:09.325Z105.477° ESE15.197°2025-05-10 02:46:09.325Z75.874° E
16 mins2025-05-10 04:40:09.325Z214.004° SW2025-05-10 04:46:09.325Z175.264° S44.653°2025-05-10 04:56:09.325Z41.634° NE
|